1998-067IE

Last updated on May 18, 2016, 11:36 p.m. UTC

1 41484U 98067JE  16139.59078241  .00084002  00000-0  12115-2 0  9993
2 41484  51.6414 205.6855 0000875  14.9992  96.2434 15.55262054    46

Satellite is not in orbit.